Location: Street
(51.1247°N, 2.7429°W)
Time: 08:04:34
(UTC+01:00)

PCSat - Pass Details

Date: 31 March 2023
Orbit: 783 x 794 km, 67.1° (Epoch: 29 May)

Event Time Altitude Azimuth Distance (km) Brightness Sun altitude
Rises 21:07:30 0° 305° (NW) 3,295 14.6 -13.7°
Reaches altitude 10° 21:11:04 10° 329° (NNW) 2,368 12.9 -14.2°
Maximum altitude 21:14:06 15° 3° (N) 2,047 12.0 -14.6°
Drops below altitude 10° 21:17:08 10° 38° (NE) 2,371 11.9 -15.0°
Enters shadow 21:20:09 - 58° (ENE) 3,132 12.4 -15.4°
